DW2633 Weather Reports


time (UTC)temp
C
wind
direction
speed
KPH
gust
KPH
rain 1hr
cm
rain 24hr
cm
rain mn
cm
humidity
%
barometer
mb
20260502222513 8 279 30.6 0.0 0.00 0.00 0.00 61 1010.7
20260502222012 8 274 30.6 0.0 0.00 0.00 0.00 59 1010.6
20260502221512 8 282 30.6 0.0 0.00 0.00 0.00 62 1010.6
20260502221012 8 284 29.0 0.0 0.00 0.00 0.00 62 1010.5
20260502220512 8 285 29.0 0.0 0.00 0.00 0.00 61 1010.5
20260502220014 8 280 32.2 0.0 0.00 0.00 0.00 61 1010.5
20260502215511 8 280 30.6 0.0 0.00 0.00 0.00 60 1010.5
20260502215011 8 288 29.0 0.0 0.00 0.00 0.00 60 1010.5
20260502214530 8 284 30.6 0.0 0.00 0.00 0.00 59 1010.5
20260502214014 8 275 32.2 0.0 0.00 0.00 0.00 61 1010.4
20260502213511 8 288 32.2 0.0 0.00 0.00 0.00 63 1010.4
20260502213012 9 277 35.4 0.0 0.00 0.00 0.00 60 1010.4
20260502212511 9 275 33.8 0.0 0.00 0.00 0.00 60 1010.4
20260502212011 9 273 33.8 0.0 0.00 0.00 0.00 59 1010.3
20260502211517 9 284 33.8 0.0 0.00 0.00 0.00 61 1010.4
20260502211010 9 279 30.6 0.0 0.00 0.00 0.00 60 1010.3
20260502210510 9 278 25.7 0.0 0.00 0.00 0.00 56 1010.3
20260502210022 9 304 25.7 0.0 0.00 0.00 0.00 55 1010.3
20260502205514 9 286 27.4 0.0 0.00 0.00 0.00 57 1010.3
20260502205009 10 287 30.6 0.0 0.00 0.00 0.00 53 1010.3
20260502204516 10 281 33.8 0.0 0.00 0.00 0.00 60 1010.4
20260502204009 9 271 30.6 0.0 0.00 0.00 0.00 64 1010.4
20260502203508 9 273 30.6 0.0 0.00 0.00 0.00 61 1010.3
20260502203013 9 276 32.2 0.0 0.00 0.00 0.00 57 1010.3
20260502202510 10 273 33.8 0.0 0.00 0.00 0.00 58 1010.2
20260502202008 10 262 33.8 0.0 0.00 0.00 0.00 58 1010.3
20260502201509 10 277 32.2 0.0 0.00 0.00 0.00 59 1010.4
20260502201007 10 276 33.8 0.0 0.00 0.00 0.00 61 1010.6
20260502200609 10 271 35.4 0.0 0.00 0.00 0.00 60 1010.5
20260502200007 10 257 38.6 0.0 0.00 0.00 0.00 61 1010.4
20260502195506 10 279 38.6 0.0 0.00 0.00 0.00 61 1010.5
20260502195007 10 266 37.0 0.0 0.00 0.00 0.00 58 1010.5
20260502194506 10 261 33.8 0.0 0.00 0.00 0.00 57 1010.5
20260502194005 10 260 32.2 0.0 0.00 0.00 0.00 59 1010.5
20260502193505 10 265 32.2 0.0 0.00 0.00 0.00 63 1010.5
20260502193005 10 265 32.2 0.0 0.00 0.00 0.00 62 1010.5
20260502192505 10 277 33.8 0.0 0.00 0.00 0.00 60 1010.6
20260502192005 10 269 33.8 0.0 0.00 0.00 0.00 62 1010.6
20260502191514 10 257 32.2 0.0 0.00 0.00 0.00 65 1010.5
20260502191004 10 275 33.8 0.0 0.00 0.00 0.00 62 1010.5
20260502190504 10 254 33.8 0.0 0.00 0.00 0.00 61 1010.6
20260502190004 10 277 35.4 0.0 0.00 0.00 0.00 59 1010.5
20260502185506 11 261 33.8 0.0 0.00 0.00 0.00 56 1010.3
20260502185002 11 259 33.8 0.0 0.00 0.00 0.00 57 1010.3
20260502184507 11 258 29.0 0.0 0.00 0.00 0.00 60 1010.3
20260502184003 11 254 24.1 0.0 0.00 0.00 0.00 58 1010.3
20260502183503 11 252 24.1 0.0 0.00 0.00 0.00 55 1010.3
20260502183001 11 279 25.7 0.0 0.00 0.00 0.00 56 1010.3
20260502182604 11 240 25.7 0.0 0.00 0.00 0.00 61 1010.3
20260502182059 11 254 25.7 0.0 0.00 0.00 0.00 61 1010.3
20260502181559 11 251 27.4 0.0 0.00 0.00 0.00 62 1010.3
20260502181058 11 264 27.4 0.0 0.00 0.00 0.00 63 1010.3
20260502180557 11 244 19.3 0.0 0.00 0.00 0.00 66 1010.4
20260502180107 11 254 14.5 0.0 0.00 0.00 0.00 58 1010.5
20260502164051 11 260 25.7 0.0 0.00 0.00 0.00 61 1010.5
20260502163555 11 264 20.9 0.0 0.00 0.00 0.00 65 1010.4
20260502163050 10 240 22.5 0.0 0.00 0.00 0.00 62 1010.5
20260502162547 10 255 22.5 0.0 0.00 0.00 0.00 69 1010.6
20260502162045 10 257 16.1 0.0 0.00 0.00 0.00 67 1010.6
20260502161544 10 257 16.1 0.0 0.00 0.00 0.00 67 1010.5
20260502161044 9 277 16.1 0.0 0.00 0.00 0.00 66 1010.5
20260502160542 8 271 16.1 0.0 0.00 0.00 0.00 68 1010.5
20260502152038 8 279 16.1 0.0 0.00 0.00 0.00 73 1010.9
20260502151536 8 281 12.9 0.0 0.00 0.00 0.00 69 1010.9
20260502151037 8 306 14.5 0.0 0.00 0.00 0.00 70 1011.0
20260502150536 8 282 14.5 0.0 0.00 0.00 0.00 74 1011.0
20260502130535 7 276 22.5 0.0 0.00 0.00 0.00 79 1011.2
20260502123532 6 276 17.7 0.0 0.00 0.00 0.00 81 1010.8
20260502123031 6 266 16.1 0.0 0.00 0.00 0.00 82 1011.0
20260502122529 6 267 14.5 0.0 0.00 0.00 0.00 83 1010.9
20260502122031 6 261 14.5 0.0 0.00 0.00 0.00 83 1010.9
20260502121539 6 255 17.7 0.0 0.00 0.00 0.00 82 1010.8
20260502121029 6 275 19.3 0.0 0.00 0.00 0.00 82 1010.8
20260502120528 6 279 19.3 0.0 0.00 0.00 0.00 84 1010.9
20260502120128 6 264 19.3 0.0 0.00 0.00 0.00 84 1011.0
20260502115528 6 260 17.7 0.0 0.00 0.00 0.00 85 1011.0
20260502115028 6 261 19.3 0.0 0.00 0.00 0.00 85 1010.9
20260502114528 6 261 20.9 0.0 0.00 0.00 0.00 84 1011.0
20260502114026 6 263 22.5 0.0 0.00 0.00 0.00 85 1010.9
20260502113527 6 258 22.5 0.0 0.00 0.00 0.00 85 1010.8
20260502113026 6 264 22.5 0.0 0.00 0.00 0.00 85 1010.9
20260502112525 6 263 19.3 0.0 0.00 0.00 0.00 86 1010.8
20260502112024 6 261 19.3 0.0 0.00 0.00 0.00 86 1010.7
20260502111526 6 252 19.3 0.0 0.00 0.00 0.00 86 1010.6
20260502111025 6 281 19.3 0.0 0.00 0.00 0.00 87 1010.6
20260502110525 6 262 17.7 0.0 0.00 0.00 0.00 86 1010.5
20260502110031 6 244 16.1 0.0 0.00 0.00 0.00 85 1010.5
20260502105523 6 277 14.5 0.0 0.00 0.00 0.00 86 1010.5
20260502105022 6 288 14.5 0.0 0.00 0.00 0.00 86 1010.3
20260502104522 6 267 16.1 0.0 0.00 0.00 0.00 87 1010.2
20260502104021 5 294 17.7 0.0 0.00 0.00 0.00 88 1010.3
20260502103521 5 281 17.7 0.0 0.00 0.00 0.00 90 1010.3
20260502103022 5 248 19.3 0.0 0.00 0.00 0.00 89 1010.1
20260502102521 5 277 20.9 0.0 0.00 0.00 0.00 90 1010.2
20260502102021 5 243 24.1 0.0 0.00 0.00 0.00 90 1010.2
20260502101521 5 257 24.1 0.0 0.00 0.00 0.00 90 1010.0
20260502101020 5 247 22.5 0.0 0.00 0.00 0.00 90 1009.9
20260502100520 5 246 22.5 0.0 0.00 0.00 0.00 90 1009.9
20260502091512 5 244 4.8 0.0 0.00 0.00 0.00 89 1009.6
20260502091011 5 229 4.8 0.0 0.00 0.00 0.00 89 1009.6
20260502090511 6 231 4.8 0.0 0.00 0.00 0.00 89 1009.6
20260502071057 6 207 1.6 0.0 0.00 0.00 0.00 87 1009.3
20260502070557 6 207 1.6 0.0 0.00 0.00 0.00 87 1009.7
20260502070057 6 219 1.6 0.0 0.00 0.00 0.00 87 1009.8
20260502065557 6 213 4.8 0.0 0.00 0.00 0.00 87 1009.9
20260502065056 6 232 8.0 0.0 0.00 0.00 0.00 87 1009.8
20260502064601 6 250 9.7 0.0 0.00 0.00 0.00 86 1009.8
20260502064059 6 250 11.3 0.0 0.00 0.00 0.00 86 1009.8
20260502063556 6 261 11.3 0.0 0.00 0.00 0.00 86 1009.7
20260502063059 6 271 11.3 0.0 0.00 0.00 0.00 86 1009.7
20260502062556 6 278 9.7 0.0 0.00 0.00 0.00 87 1009.6
20260502062053 6 283 8.0 0.0 0.00 0.00 0.00 88 1009.6
20260502061554 6 274 8.0 0.0 0.00 0.00 0.00 88 1009.7
20260502061050 6 266 8.0 0.0 0.00 0.00 0.00 87 1009.7
20260502060549 6 275 6.4 0.0 0.00 0.00 0.00 87 1009.9
20260502060048 6 248 3.2 0.0 0.00 0.00 0.00 87 1010.0
20260502055549 6 221 1.6 0.0 0.00 0.00 0.00 87 1010.0
20260502055048 6 220 1.6 0.0 0.00 0.00 0.00 87 1010.0
20260502054546 6 223 1.6 0.0 0.00 0.00 0.00 86 1010.0
20260502054045 6 222 0.0 0.0 0.00 0.00 0.00 86 1010.2
20260502053545 6 215 1.6 0.0 0.00 0.00 0.00 86 1010.1
20260502053045 7 178 1.6 0.0 0.00 0.00 0.00 86 1010.1
20260502052544 7 180 0.0 0.0 0.00 0.00 0.00 85 1010.2
20260502052047 7 180 1.6 0.0 0.00 0.00 0.00 85 1010.2
20260502051543 7 180 1.6 0.0 0.00 0.00 0.00 84 1010.2
20260502051042 7 181 3.2 0.0 0.00 0.00 0.00 84 1010.2
20260502050541 7 182 3.2 0.0 0.00 0.00 0.00 83 1010.2
20260502050046 7 178 3.2 0.0 0.00 0.00 0.00 83 1010.2
20260502045540 7 180 1.6 0.0 0.00 0.00 0.00 82 1010.2
20260502045039 7 207 0.0 0.0 0.00 0.00 0.00 81 1010.2
20260502044538 7 206 0.0 0.0 0.00 0.00 0.00 79 1010.1
20260502044036 7 207 0.0 0.0 0.00 0.00 0.00 79 1010.1
20260502043536 8 207 1.6 0.0 0.00 0.00 0.00 77 1010.0
20260502043037 8 230 4.8 0.0 0.00 0.00 0.00 75 1010.2
20260502042537 8 229 6.4 0.0 0.00 0.00 0.00 73 1010.2
20260502042034 8 230 6.4 0.0 0.00 0.00 0.00 73 1010.2
20260502041533 8 246 6.4 0.0 0.00 0.00 0.00 73 1010.2
20260502041031 8 223 6.4 0.0 0.00 0.00 0.00 73 1010.1
20260502040533 8 242 6.4 0.0 0.00 0.00 0.00 72 1010.2
20260502040030 8 236 9.7 0.0 0.00 0.00 0.00 73 1010.0
20260502035530 8 216 9.7 0.0 0.00 0.00 0.00 72 1010.0
20260502035030 8 225 8.0 0.0 0.00 0.00 0.00 72 1010.0
20260502034530 8 261 9.7 0.0 0.00 0.00 0.00 73 1009.9
20260502034029 8 263 11.3 0.0 0.00 0.00 0.00 73 1010.1
20260502033529 8 260 11.3 0.0 0.00 0.00 0.00 72 1010.3
20260502033039 8 276 11.3 0.0 0.00 0.00 0.00 71 1010.3
20260502032528 8 273 11.3 0.0 0.00 0.00 0.00 71 1010.3
20260502032029 8 271 11.3 0.0 0.00 0.00 0.00 71 1010.3
20260502031529 8 280 11.3 0.0 0.00 0.00 0.00 70 1010.2
20260502031029 8 281 11.3 0.0 0.00 0.00 0.00 70 1010.2
20260502030528 8 286 11.3 0.0 0.00 0.00 0.00 70 1010.2
20260502030028 8 271 11.3 0.0 0.00 0.00 0.00 70 1010.2
20260502025527 8 288 11.3 0.0 0.00 0.00 0.00 68 1010.2
20260502025028 8 283 11.3 0.0 0.00 0.00 0.00 68 1010.1
20260502024528 8 276 12.9 0.0 0.00 0.00 0.00 69 1010.2
20260502024027 9 288 14.5 0.0 0.00 0.00 0.00 67 1010.2
20260502023527 9 285 16.1 0.0 0.00 0.00 0.00 69 1010.2
20260502023027 9 277 17.7 0.0 0.00 0.00 0.00 68 1010.3
20260502022526 9 281 16.1 0.0 0.00 0.00 0.00 69 1010.3
20260502022026 9 284 12.9 0.0 0.00 0.00 0.00 67 1010.3
20260502021526 9 279 8.0 0.0 0.00 0.00 0.00 66 1010.3
20260502021026 9 279 8.0 0.0 0.00 0.00 0.00 65 1010.3
20260502020526 9 333 8.0 0.0 0.00 0.00 0.00 62 1010.3
20260502020026 9 332 8.0 0.0 0.00 0.00 0.00 64 1010.3
20260502015530 9 309 8.0 0.0 0.00 0.00 0.00 63 1010.3
20260502015026 9 339 9.7 0.0 0.00 0.00 0.00 62 1010.4
20260502014529 9 336 9.7 0.0 0.00 0.00 0.00 63 1010.4
20260502014025 9 331 9.7 0.0 0.00 0.00 0.00 61 1010.3
20260502013525 9 338 11.3 0.0 0.00 0.00 0.00 62 1010.3
20260502013026 9 327 11.3 0.0 0.00 0.00 0.00 62 1010.3
20260502012527 9 325 12.9 0.0 0.00 0.00 0.00 63 1010.2
20260502012026 9 325 12.9 0.0 0.00 0.00 0.00 62 1010.2
20260502011525 10 317 14.5 0.0 0.00 0.00 0.00 62 1010.1
20260502011024 10 323 12.9 0.0 0.00 0.00 0.00 62 1010.0
20260502010524 10 317 12.9 0.0 0.00 0.00 0.00 60 1009.9
20260502010025 10 329 14.5 0.0 0.00 0.00 0.00 60 1009.9
20260502005526 10 317 14.5 0.0 0.00 0.00 0.00 62 1009.9
20260502005027 10 289 14.5 0.0 0.00 0.00 0.00 62 1009.7
20260502004539 10 305 14.5 0.0 0.00 0.00 0.00 59 1009.7
20260502004024 10 303 14.5 0.0 0.00 0.00 0.00 60 1009.6
20260502003523 10 306 16.1 0.0 0.00 0.00 0.00 60 1009.6
20260502003024 10 311 16.1 0.0 0.00 0.00 0.00 60 1009.5
20260502002523 10 302 14.5 0.0 0.00 0.00 0.00 57 1009.5
20260502002023 10 309 14.5 0.0 0.00 0.00 0.00 59 1009.4
20260502001526 10 309 16.1 0.0 0.00 0.00 0.00 61 1009.4
20260502001022 10 306 16.1 0.0 0.00 0.00 0.00 61 1009.4
20260502000523 10 306 16.1 0.0 0.00 0.00 0.00 61 1009.4
20260502000031 10 298 16.1 0.0 0.00 0.00 0.00 65 1009.4
20260501235526 10 307 17.7 0.0 0.00 0.00 0.00 62 1009.4
20260501235022 11 304 17.7 0.0 0.00 0.00 0.00 59 1009.3
20260501234529 11 304 14.5 0.0 0.00 0.00 0.00 62 1009.3
20260501234022 11 292 12.9 0.0 0.00 0.00 0.00 62 1009.2
20260501233524 11 292 16.1 0.0 0.00 0.00 0.00 61 1009.2
20260501233022 11 286 20.9 0.0 0.00 0.00 0.00 60 1009.2
20260501232521 11 281 22.5 0.0 0.00 0.00 0.00 62 1009.2
20260501232021 11 284 19.3 0.0 0.00 0.00 0.00 59 1009.2
20260501231535 11 298 19.3 0.0 0.00 0.00 0.00 54 1009.2
20260501231022 11 297 19.3 0.0 0.00 0.00 0.00 57 1009.1
20260501230522 11 265 22.5 0.0 0.00 0.00 0.00 58 1009.1
20260501230025 11 278 22.5 0.0 0.00 0.00 0.00 56 1009.1
20260501225521 11 294 20.9 0.0 0.00 0.00 0.00 57 1009.0
20260501225021 11 267 19.3 0.0 0.00 0.00 0.00 57 1009.0
20260501224520 12 291 19.3 0.0 0.00 0.00 0.00 56 1008.8
20260501224020 12 273 19.3 0.0 0.00 0.00 0.00 58 1008.8
20260501223520 12 263 19.3 0.0 0.00 0.00 0.00 58 1008.8
20260501223020 12 252 19.3 0.0 0.00 0.00 0.00 57 1008.7